Home   Weather   Madison   Past weeks
Flag for USA

Past Weather in Madison, Wisconsin, USA — Yesterday and Last 2 Weeks

Now
39 °F

Passing clouds.


Feels Like: 35 °F
Forecast: 51 / 32 °F
Wind: 6 mph from North

Location: Dane County Regional-Truax Field

Current Time: Oct 13, 2019 at 10:50:26 pm

Latest Report: Oct 13, 2019 at 9:53 pm


Visibility: 10 mi

Pressure: 29.94 "Hg

Humidity: 73%

Dew Point: 31 °F

Location of MadisonLocation

Past Weather in Madison — Graph

°F

Madison Temperature Yesterday

Maximum temperature yesterday: 49 °F (at 2:53 pm)
Minimum temperature yesterday: 33 °F (at 6:53 am)
Average temperature yesterday: 39 °F

High & Low Weather Summary for the Past Weeks

 TemperatureHumidityPressure
High85 °F (Sep 30, 2:53 pm)100% (Sep 29, 8:53 pm)30.45 "Hg (Sep 29, 8:53 pm)
Low33 °F (Oct 12, 6:53 am)35% (Oct 8, 3:53 pm)29.73 "Hg (Oct 11, 5:53 am)
Average55 °F79%30.02 "Hg
* Reported Sep 28 8:53 pm — Oct 13 8:53 pm, Madison. Weather by CustomWeather, © 2019

Note: Actual official high and low records may vary slightly from our data, if they occured in-between our weather recording intervals... More about our weather records

Advertising

Madison Weather History for the Previous 24 Hours

Scroll right to see more
 ConditionsComfort  
Time TempWeatherWind HumidityBarometerVisibility
8:53 pm
Sun, Oct 13
41 °FPassing clouds.6 mph67%29.93 "Hg10 mi
7:53 pm41 °FOvercast.7 mph70%29.92 "Hg10 mi
6:53 pm41 °FMostly cloudy.8 mph67%29.90 "Hg10 mi
5:53 pm41 °FMostly cloudy.5 mph67%29.88 "Hg10 mi
5:00 pm41 °FMore clouds than sun.8 mph67%29.85 "Hg10 mi
3:53 pm41 °FMostly cloudy.3 mph67%29.84 "Hg10 mi
2:53 pm41 °FMostly cloudy.8 mph67%29.83 "Hg10 mi
1:53 pm40 °FMostly cloudy.13 mph68%29.83 "Hg10 mi
12:53 pm40 °FMostly cloudy.7 mph68%29.81 "Hg10 mi
11:53 am39 °FMostly cloudy.7 mph70%29.81 "Hg10 mi
10:53 am39 °FMostly cloudy.8 mph70%29.82 "Hg10 mi
10:28 am38 °FCloudy.8 mph73%29.80 "Hg10 mi
9:53 am38 °FMostly cloudy.14 mph73%29.80 "Hg10 mi
9:08 am38 °FMore clouds than sun.10 mph76%29.78 "Hg10 mi
8:53 am37 °FMostly cloudy.10 mph76%29.80 "Hg10 mi
7:53 am37 °FMostly cloudy.9 mph79%29.79 "Hg10 mi
6:53 am37 °FMostly cloudy.9 mph82%29.78 "Hg10 mi
5:53 am37 °FMostly cloudy.6 mph82%29.78 "Hg10 mi
4:53 am37 °FMostly cloudy.10 mph82%29.77 "Hg10 mi
4:10 am36 °FMostly cloudy.6 mph85%29.76 "Hg10 mi
3:26 am36 °FMostly cloudy.8 mph85%29.76 "Hg10 mi
3:15 am36 °FOvercast.9 mph85%29.76 "Hg10 mi
2:53 am36 °FLight rain. Mostly cloudy.9 mph89%29.77 "Hg10 mi
2:43 am36 °FLight rain. Mostly cloudy.6 mph89%29.76 "Hg10 mi
2:02 am37 °FLight rain. Mostly cloudy.6 mph89%29.76 "Hg9 mi
1:53 am37 °FLight rain. Mostly cloudy.8 mph86%29.77 "Hg9 mi
12:53 am38 °FLight rain. Overcast.15 mph79%29.76 "Hg10 mi
12:01 am38 °FOvercast.10 mph79%29.76 "Hg10 mi
10:53 pm
Sat, Oct 12
37 °FMostly cloudy.6 mph86%29.79 "Hg10 mi
Weather by CustomWeather, © 2019

See weather overview